Location: Boiro
(42.6475°N, 8.8834°W)
Time: 02:29:12
(UTC+01:00)

Explorer 11/Cluster Stage 4 - Pass Details

Date: 02 December 2021
Orbit: 467 x 1255 km, 28.8° (Epoch: 20 January)

Event Time Altitude Azimuth Distance (km) Brightness Sun altitude
Rises 02:53:40 0° 199° (SSW) 3,510 - -62.3°
Reaches altitude 10° 02:58:27 10° 167° (SSE) 2,785 - -61.6°
Maximum altitude 03:00:22 11° 150° (SSE) 2,769 - -61.3°
Drops below altitude 10° 03:02:23 10° 134° (SE) 2,938 - -61.0°
Sets 03:07:55 0° 104° (ESE) 4,067 - -60.2°
